Theta_e
339 339 340 340 340 340 341 340 340 340 340 340 340 341 341 341 341 341 340 340 341 341 341 340 340 341 340 339 339 339 338 338 338 337 337 337 336 336 335 335 335 334 335 335 335 335 335 335 334 333 333 333 333 333 332 333 333 333 333 333 333 333 334 333 333 332 331 332 331 332 332 331 332 332 331 331 332 332 332 332 331 331 331 330 330
337 338 338 338 339 339 340 340 340 340 341 340 341 341 341 341 341 341 341 340 341 341 340 341 340 340 340 339 339 338 337 337 337 337 336 335 335 334 334 333 333 334 334 335 335 335 334 334 333 333 333 332 332 332 332 332 332 332 332 332 333 333 333 333 333 333 332 332 332 332 332 332 332 331 331 331 331 331 331 331 331 331 332 331 330
338 337 338 337 338 338 340 340 340 341 341 341 341 341 341 341 341 341 341 341 341 341 340 341 340 340 340 339 337 337 336 336 336 335 334 333 333 332 332 333 333 333 333 333 332 332 333 333 333 332 332 332 332 331 331 331 331 331 331 332 332 333 332 332 332 333 333 332 332 332 332 331 332 332 332 331 331 331 331 331 332 331 331 331 330
337 338 337 337 337 338 339 339 340 341 341 341 341 341 341 341 341 342 342 341 341 341 340 341 340 339 339 337 336 336 336 336 335 333 333 332 332 332 332 331 331 331 331 331 331 331 331 330 330 330 330 330 331 330 330 331 331 331 331 331 332 333 333 333 333 333 333 332 332 332 332 331 331 332 332 332 331 331 331 331 331 332 331 331 331
337 339 338 337 337 337 338 338 339 340 341 340 341 341 341 341 341 341 341 342 341 341 341 340 340 339 338 336 335 336 336 335 335 333 332 332 331 331 330 330 330 330 330 330 330 330 330 329 329 329 329 329 329 329 329 329 329 330 330 329 330 331 332 332 333 333 333 332 332 332 333 332 332 332 332 332 332 331 331 331 331 331 331 331 331
336 337 337 336 336 335 336 337 338 338 339 339 340 340 340 340 341 341 341 341 340 340 340 339 338 337 337 337 337 338 337 335 335 333 331 330 330 330 330 329 329 329 329 329 328 328 328 328 328 328 328 328 328 328 328 328 328 329 329 329 328 329 330 330 331 332 333 333 332 333 332 331 332 332 331 331 332 332 331 331 331 331 331 331 331
334 334 335 335 335 335 335 336 336 336 336 338 339 338 339 339 340 341 341 340 340 339 338 337 336 336 337 337 336 337 336 335 333 332 330 330 330 330 330 329 329 328 328 327 327 327 327 327 327 327 327 327 327 327 327 328 328 328 328 328 328 329 329 329 329 330 331 331 332 332 331 328 329 331 331 331 332 332 332 331 331 331 331 331 331
333 333 334 335 334 334 334 334 334 334 335 336 337 338 338 339 339 340 339 339 338 338 337 336 337 337 336 335 334 333 333 333 332 331 330 331 331 330 329 328 328 327 327 326 326 327 327 327 327 327 327 327 327 326 327 327 327 327 327 327 328 328 328 329 329 329 330 330 330 331 330 327 327 330 331 331 331 331 331 331 331 331 331 331 331
332 334 336 335 334 334 333 333 333 333 334 335 337 338 338 338 338 338 338 338 337 337 337 336 336 335 334 333 332 332 331 331 331 331 331 331 330 329 328 327 327 327 326 326 326 327 327 327 327 327 327 327 327 327 327 327 327 327 327 327 327 327 328 329 330 330 330 330 330 330 330 328 327 328 329 329 329 330 330 331 331 332 331 331 331
333 336 336 334 333 333 332 332 332 333 333 335 337 337 337 337 337 337 337 337 336 336 336 335 334 333 332 332 331 330 330 330 331 331 330 330 329 328 327 327 327 326 326 326 326 326 326 327 327 327 326 326 327 327 328 327 328 328 328 328 327 326 327 328 329 329 329 330 330 330 329 330 328 328 328 328 329 330 330 330 332 333 333 332 331
335 337 336 334 333 332 332 332 332 333 333 334 336 337 337 337 337 336 335 335 334 334 334 333 332 332 331 329 329 329 330 330 330 329 329 328 328 327 326 326 326 326 326 326 325 325 326 326 326 326 326 327 327 327 327 327 328 328 327 327 327 327 327 327 328 329 329 329 329 329 329 329 329 329 328 327 328 329 329 330 331 332 333 333 332
336 337 336 333 332 332 332 331 332 332 333 334 335 335 335 335 334 333 332 332 332 332 331 331 330 329 329 329 329 329 329 329 328 327 327 327 326 326 325 325 325 325 325 325 324 324 324 325 325 326 326 326 326 327 327 327 327 327 327 327 327 327 328 327 328 328 328 328 328 328 328 328 329 330 329 328 328 328 329 330 330 331 332 333 332
337 337 335 334 332 332 331 331 331 331 331 333 333 333 332 332 331 330 329 329 329 329 328 328 327 327 328 328 329 328 328 327 327 326 326 325 325 325 325 324 324 324 324 323 323 323 323 324 324 325 325 324 324 325 326 326 327 327 327 327 327 327 327 327 327 327 327 328 328 328 328 328 328 329 329 329 329 329 329 330 330 330 331 333 332
338 336 334 334 332 331 331 330 331 330 329 330 331 331 330 330 330 328 327 326 326 326 327 327 327 327 327 328 328 327 326 326 325 325 325 324 324 323 323 323 323 323 323 322 322 322 323 323 323 324 324 324 324 324 324 325 326 326 326 327 327 327 327 326 326 327 327 327 328 329 329 328 329 329 329 329 329 329 329 330 331 331 331 332 332
337 335 333 333 332 331 330 330 330 329 328 328 329 329 328 328 327 326 325 325 325 325 326 326 326 327 327 327 327 326 325 324 324 324 324 323 322 322 322 322 322 322 321 321 321 322 322 322 322 323 324 324 324 324 324 325 326 326 326 326 327 327 327 326 326 327 327 327 327 327 327 328 328 328 328 329 329 329 329 330 330 330 331 331 331
336 334 333 332 332 330 329 329 328 328 327 327 327 327 327 326 325 324 324 324 325 325 326 326 326 326 326 325 325 324 324 324 323 323 323 322 321 320 321 321 321 321 321 321 322 322 322 322 322 323 324 324 324 323 324 324 325 326 325 325 326 326 326 326 325 326 326 326 326 326 327 328 328 328 328 328 328 329 329 330 330 329 330 332 332
334 334 332 331 331 329 328 328 327 327 326 326 326 326 325 325 324 324 324 324 325 325 325 324 324 324 324 323 323 323 323 323 322 321 321 320 319 319 320 321 321 320 320 321 321 322 322 322 322 323 323 324 323 323 323 323 324 325 325 325 325 326 326 326 325 326 326 326 326 326 327 328 327 327 328 328 328 329 329 329 329 329 330 331 331
332 332 331 330 330 328 328 327 326 326 325 325 325 325 324 324 324 324 324 324 324 324 324 323 323 323 322 322 322 322 321 321 321 320 319 319 318 319 320 320 320 320 321 321 321 321 322 322 321 321 322 322 322 322 322 323 324 325 325 325 325 326 326 325 325 325 326 326 326 325 326 327 326 326 327 328 328 329 329 329 329 329 329 329 330
332 331 330 329 329 328 327 327 326 325 324 324 324 324 324 323 323 324 323 323 323 322 322 322 321 321 321 321 321 320 320 320 320 319 318 318 318 319 319 319 319 319 320 319 318 320 321 319 318 318 320 321 321 322 322 323 324 324 324 324 324 325 325 325 325 325 325 325 325 325 325 325 326 326 327 327 327 327 328 328 328 329 329 329 330
332 331 330 329 328 327 326 326 325 324 324 323 323 323 323 323 323 323 322 322 321 321 321 320 320 320 319 319 319 319 319 319 319 318 318 318 319 319 319 318 318 317 316 315 315 316 317 316 315 317 318 319 320 322 322 321 322 323 323 323 323 323 323 322 322 322 323 323 323 322 322 323 324 325 326 326 326 326 326 327 327 328 329 329 329
330 329 327 327 326 326 325 325 324 324 323 322 322 322 323 322 322 321 320 320 320 319 319 318 318 318 318 318 318 317 317 317 318 318 318 318 318 319 318 317 317 316 314 313 314 314 314 314 315 316 317 318 319 320 320 319 320 321 320 320 320 319 319 319 320 320 320 320 321 320 320 320 321 323 324 325 325 325 326 326 326 327 328 328 329
328 327 326 326 325 324 324 324 324 323 323 322 322 322 322 321 320 320 319 319 318 317 317 317 317 317 317 317 316 316 316 316 317 318 318 318 318 318 316 316 316 315 313 314 314 314 313 314 316 316 317 317 317 318 319 319 319 319 318 317 316 316 317 317 317 318 318 318 319 319 318 318 318 320 321 323 324 325 325 326 326 326 327 327 328
326 326 326 325 325 324 324 324 323 323 322 322 322 321 320 320 319 319 318 317 317 316 316 316 316 316 316 316 316 315 315 315 316 317 318 317 317 316 315 314 314 313 313 313 314 314 313 313 315 316 315 314 315 316 317 317 317 317 316 315 314 314 315 314 315 315 316 316 317 317 317 316 316 317 318 320 322 324 324 325 325 326 326 326 326
326 326 325 324 324 324 324 324 323 322 322 321 321 320 319 319 318 318 317 317 316 315 315 315 315 315 315 315 315 315 314 315 315 316 316 315 314 314 313 313 313 312 312 312 312 312 312 311 312 313 312 312 313 313 314 314 314 314 313 313 313 313 313 313 313 313 314 314 315 315 315 315 314 314 315 316 318 321 323 324 325 326 326 325 326
324 324 323 322 323 323 323 323 322 322 321 320 319 318 318 318 317 317 316 316 315 314 314 314 314 314 314 314 314 314 313 314 315 314 313 313 313 313 312 312 311 311 311 310 310 311 310 310 310 310 311 311 311 311 312 312 311 312 312 312 312 312 313 313 313 313 313 313 313 313 313 313 313 312 312 313 314 317 320 322 323 324 325 325 325
323 323 322 321 322 323 323 322 322 321 320 318 318 318 317 317 317 316 316 315 314 313 313 313 313 313 313 313 313 312 313 313 313 312 312 312 312 311 310 310 310 309 309 309 309 309 309 308 308 308 309 309 309 309 310 310 311 311 312 312 312 312 313 312 312 312 312 312 313 313 313 313 312 311 310 310 311 313 315 316 317 320 323 324 325
323 322 321 321 322 322 322 321 321 320 319 318 318 317 317 317 316 315 315 314 313 313 312 312 312 311 311 311 311 310 311 311 310 311 310 310 310 310 309 309 309 308 308 308 308 308 307 307 306 306 306 307 307 308 308 309 310 311 310 310 310 311 311 311 310 310 311 312 313 312 312 312 312 311 309 309 309 309 310 311 312 315 318 322 323
322 321 321 321 321 321 321 320 319 318 318 317 317 317 316 316 315 314 313 313 312 312 311 311 311 310 309 309 309 309 308 309 309 309 308 308 309 308 308 308 307 307 307 306 306 306 305 305 305 305 305 305 306 307 307 309 310 310 309 308 308 309 309 309 309 309 310 311 312 312 311 311 311 311 309 308 307 307 308 308 310 311 313 317 319
321 320 321 320 320 320 319 318 317 317 316 316 316 316 315 315 315 313 312 312 312 311 310 310 310 308 307 307 307 307 307 307 307 307 306 306 306 306 306 306 305 305 305 304 305 305 305 304 305 305 305 305 306 306 307 309 310 309 309 308 308 308 308 308 308 308 309 309 311 311 310 310 310 310 309 308 307 307 306 306 307 308 309 311 314
321 320 320 320 319 319 318 317 317 316 316 316 315 315 315 314 314 313 312 311 311 310 309 309 308 307 306 306 306 305 305 306 305 305 305 305 304 305 305 304 304 304 304 304 305 306 306 305 305 306 306 305 304 304 306 308 309 308 307 306 305 305 305 305 305 306 306 307 308 309 308 309 310 310 309 308 307 306 306 305 305 306 306 307 309
321 320 320 319 318 318 318 317 316 316 316 316 315 315 315 314 313 312 311 311 310 309 308 307 307 306 306 306 304 304 304 305 304 304 304 304 304 304 304 303 303 303 303 304 305 305 306 305 305 304 304 303 302 302 304 306 306 306 304 303 303 303 303 303 303 303 304 304 305 306 306 308 309 309 309 309 307 306 306 305 305 305 305 305 305
321 320 319 317 317 317 318 317 316 316 316 315 315 314 314 313 312 311 311 310 309 308 307 307 306 307 307 306 305 303 302 303 303 303 303 303 303 303 302 302 302 302 302 303 303 303 303 303 303 303 302 301 301 302 303 304 304 303 302 302 301 302 302 302 302 302 302 302 303 304 304 306 306 307 307 308 308 307 306 306 305 305 305 305 305
321 319 318 317 317 317 317 317 316 316 315 315 315 314 313 312 312 311 310 309 308 307 307 306 305 306 306 305 305 304 303 302 302 301 301 301 301 302 302 301 301 301 302 302 302 302 302 301 302 301 301 300 300 301 302 302 302 301 301 301 300 301 301 301 301 301 301 301 301 302 302 303 304 306 306 306 307 308 307 306 305 305 304 305 305
319 318 317 318 318 317 316 316 316 315 314 314 314 313 312 311 311 310 309 308 308 307 306 305 304 304 304 303 303 304 304 304 303 303 302 301 302 302 301 301 301 301 301 301 301 301 301 301 301 301 300 300 300 301 301 301 301 300 300 300 300 300 300 300 300 300 300 300 300 301 301 301 301 303 304 305 306 307 307 306 305 305 304 303 303
318 317 317 318 317 316 316 315 315 314 313 313 313 312 311 311 310 309 308 307 306 306 305 304 303 302 302 302 303 303 303 303 303 303 303 302 302 301 301 301 301 300 300 300 300 300 300 300 300 300 300 300 300 300 300 300 300 300 300 300 300 300 300 300 300 299 299 298 298 299 300 300 300 301 302 303 304 305 306 306 305 304 304 302 301
318 318 318 318 316 316 315 314 313 313 313 313 312 311 310 310 309 308 306 306 306 304 303 302 302 301 301 302 302 303 302 302 302 302 302 301 301 300 300 300 300 300 299 299 299 299 299 300 300 300 300 300 300 300 300 300 300 299 300 300 301 300 300 300 300 299 299 298 297 298 298 298 299 299 300 301 302 303 305 305 305 304 304 303 302
319 318 318 317 316 315 314 313 312 312 312 311 311 310 310 308 308 307 305 305 305 303 302 301 301 301 301 301 302 302 301 301 301 301 300 300 299 299 299 299 299 299 299 299 299 300 300 300 300 299 299 299 299 299 299 299 299 299 300 301 300 300 300 300 299 299 299 298 297 297 297 298 298 299 299 299 300 302 303 304 304 304 303 303 303
318 317 316 316 314 313 312 312 312 311 311 311 310 309 308 307 306 305 304 304 304 302 301 301 301 301 301 301 302 302 301 300 300 300 299 299 299 299 299 299 299 299 299 299 299 299 300 300 299 298 298 298 298 298 298 298 298 298 299 300 300 300 300 300 299 299 299 298 297 297 297 298 298 298 299 299 299 300 302 302 303 303 303 302 302
317 316 315 314 313 312 311 311 310 309 310 310 309 309 308 306 305 304 303 302 302 302 302 302 301 301 302 302 302 301 301 300 300 299 299 299 299 299 299 299 299 298 298 298 299 299 299 299 298 298 298 298 298 298 297 297 297 297 298 299 300 299 299 299 299 299 298 298 297 297 297 297 298 298 298 298 298 299 300 300 301 301 302 302 301
316 315 314 313 312 310 310 310 309 308 308 308 308 308 307 305 303 303 302 301 302 302 302 302 301 301 301 302 302 301 301 300 299 299 298 299 299 299 299 298 298 298 298 298 298 298 298 298 298 298 297 297 297 297 297 297 297 297 297 298 298 299 299 299 298 298 298 298 297 297 297 297 297 298 298 298 298 298 298 299 299 299 300 300 301
315 313 312 311 311 310 310 309 307 307 308 308 308 306 304 303 302 301 301 301 301 301 301 301 301 301 301 301 301 301 300 300 299 299 298 299 299 298 298 297 297 297 297 297 298 298 298 298 297 297 297 296 296 296 296 296 296 296 296 296 297 297 298 298 298 298 298 298 297 297 296 297 297 297 297 297 297 298 298 297 298 298 298 299 300
313 311 311 310 309 309 308 306 306 307 307 308 307 305 302 302 301 301 301 301 301 300 299 300 300 300 300 300 300 300 300 299 299 299 298 298 298 297 297 296 297 297 297 297 298 298 298 297 297 296 296 295 295 295 295 295 296 295 295 295 295 296 296 297 297 297 297 297 297 296 296 296 297 296 297 297 297 297 297 297 297 297 297 298 299
311 310 310 309 308 307 306 305 305 306 307 308 307 304 302 301 301 301 301 301 300 299 299 299 299 299 299 299 299 299 299 299 298 298 298 298 297 297 296 296 296 297 297 297 297 297 297 297 297 296 295 294 294 294 294 294 294 294 294 295 295 295 295 296 296 296 296 296 296 296 296 296 296 296 296 296 296 297 297 297 296 296 297 298 299
311 310 309 308 306 305 304 304 304 305 306 307 307 304 301 300 300 300 300 300 300 300 299 298 298 298 298 298 298 298 298 298 298 297 297 297 297 296 296 295 296 297 297 296 297 297 297 297 296 296 295 294 293 293 292 292 293 294 294 294 295 295 295 295 295 295 295 295 295 295 295 296 296 296 295 295 296 296 296 296 296 296 296 297 298
310 309 308 307 306 304 304 303 303 304 305 306 306 305 302 300 300 300 300 300 300 299 298 298 298 298 297 297 297 297 297 297 297 297 297 297 297 296 296 296 296 297 296 296 296 296 296 296 296 295 295 294 294 293 292 292 292 293 293 294 294 294 294 294 294 294 294 294 294 294 294 295 295 295 295 295 295 296 296 296 296 296 296 296 297
309 307 306 305 304 304 303 303 303 303 304 304 304 304 302 300 300 300 300 300 300 299 298 298 297 297 297 297 296 296 296 296 297 297 297 297 296 296 296 296 296 296 296 296 296 296 296 296 296 295 295 294 294 293 293 293 293 293 293 293 294 294 294 294 294 294 294 294 294 294 294 294 294 294 294 294 294 295 296 296 296 295 296 296 296
308 306 305 304 304 303 303 302 301 302 302 302 302 303 302 300 299 299 300 300 299 299 298 297 297 297 296 296 296 296 296 296 297 297 297 296 295 295 296 296 296 296 296 296 296 296 296 296 295 295 295 295 294 294 293 293 294 294 293 294 294 294 294 294 294 294 294 294 294 294 294 294 294 294 294 294 294 294 294 295 295 295 295 296 295
306 305 304 304 304 303 303 302 301 300 301 301 302 302 301 299 299 299 299 299 299 299 298 297 297 296 296 296 296 296 296 297 297 297 297 296 295 295 296 296 296 296 296 296 296 296 296 295 296 296 295 295 294 293 292 292 292 293 294 294 294 294 293 294 293 293 294 294 294 294 294 294 294 294 294 294 294 294 294 294 294 294 295 295 295
305 304 304 304 303 303 302 301 300 300 300 301 301 300 299 299 299 299 299 299 299 299 298 297 296 296 296 296 296 296 296 297 297 297 297 296 295 295 295 295 295 295 295 296 296 295 295 295 295 295 295 295 294 293 291 291 291 292 292 293 293 293 293 293 293 293 294 294 294 294 294 294 294 294 294 294 294 294 294 294 293 294 294 295 295
305 304 303 303 303 302 301 300 299 299 299 299 299 299 298 299 299 299 299 299 299 298 297 296 296 296 296 296 296 296 296 296 297 296 296 295 295 295 295 295 295 295 294 294 294 294 294 294 294 294 294 294 294 292 291 290 290 291 292 292 292 292 292 292 292 292 293 294 294 294 294 294 294 294 294 294 294 294 294 294 294 293 293 294 294
304 303 303 302 301 301 300 299 298 298 298 298 297 297 297 298 298 298 299 299 298 297 296 296 296 296 295 295 296 296 296 296 296 296 296 296 295 295 295 295 295 294 294 294 293 293 292 292 292 292 293 293 292 291 290 289 289 290 290 290 290 290 290 290 290 291 292 293 293 294 294 294 294 294 293 294 294 294 294 294 294 293 293 293 293
Wind_Speed
9 12 12 13 13 12 12 12 12 12 11 12 11 11 11 11 12 11 10 9 9 8 7 6 6 6 5 4 3 3 3 3 2 2 3 4 4 4 3 2 2 2 2 2 2 3 4 4 5 5 6 6 7 8 9 10 11 12 13 14 14 16 17 16 15 14 13 12 13 15 16 16 14 12 13 14 14 14 14 14 14 15 18 23 27
8 10 13 13 12 13 13 12 13 12 11 12 11 11 11 11 11 10 9 9 8 8 7 7 7 6 6 5 5 4 3 3 3 3 4 5 4 4 3 2 2 2 2 2 2 3 3 4 5 5 6 7 8 9 10 11 12 13 13 14 15 16 18 17 16 14 12 11 11 11 12 14 13 13 15 15 14 14 14 14 14 15 15 18 24
6 7 11 12 11 12 13 12 13 12 12 12 11 11 11 10 10 9 9 9 9 10 9 8 8 6 6 5 6 5 4 5 6 5 5 5 5 4 4 3 3 3 2 3 3 4 4 5 5 5 6 7 8 9 10 11 12 13 14 15 15 16 17 17 17 16 15 13 10 8 7 7 9 10 13 16 15 14 15 15 14 15 16 16 20
5 7 10 11 11 11 11 12 13 13 13 12 11 11 11 9 9 8 8 9 10 10 10 9 8 7 6 5 6 7 7 8 7 6 6 6 6 5 5 5 4 4 4 4 4 4 4 5 5 6 7 6 7 9 10 11 12 13 15 15 15 15 16 16 16 17 19 16 8 4 3 4 8 7 9 13 14 15 16 17 16 16 16 15 16
1 6 9 10 10 10 10 11 11 12 12 12 12 12 11 10 9 8 8 9 9 9 10 9 8 7 7 6 7 8 8 7 6 6 7 7 7 6 6 6 6 6 5 5 5 5 5 5 5 6 6 6 7 8 10 11 12 13 14 16 16 16 17 17 17 17 19 20 15 9 3 3 6 5 6 8 9 13 15 17 18 17 16 17 18
2 3 7 9 10 9 9 10 10 11 11 11 11 11 11 11 10 10 9 9 10 10 10 9 7 7 8 8 7 7 7 5 5 6 7 7 7 6 6 7 7 7 6 6 6 6 6 6 6 6 6 6 7 8 10 11 12 12 13 15 16 16 17 18 19 18 17 20 22 20 15 13 10 4 4 5 6 10 13 15 18 19 19 19 20
6 4 3 6 9 9 9 8 9 10 11 11 11 10 9 10 10 10 9 10 10 10 10 9 9 9 9 8 7 7 7 5 4 6 7 6 5 5 6 8 8 8 8 8 8 8 7 7 7 7 7 7 8 9 10 11 12 13 13 15 16 17 17 18 20 19 17 18 20 23 25 24 20 12 7 6 6 8 10 12 15 17 19 20 22
10 8 2 3 7 9 9 8 8 10 11 12 11 11 11 11 11 10 11 12 11 10 11 10 10 10 9 9 8 8 8 7 5 5 5 4 4 5 6 7 8 9 9 9 9 9 8 7 7 7 7 8 9 10 11 12 13 14 15 16 17 18 17 17 21 19 17 17 17 18 19 20 23 23 17 11 7 7 8 10 12 15 17 19 22
12 12 8 6 7 8 8 9 9 10 11 13 13 12 13 13 13 12 13 13 12 12 12 11 10 9 9 9 9 8 8 6 5 4 3 3 5 6 7 8 8 9 9 9 9 9 9 9 9 9 9 9 11 11 12 13 13 14 15 16 16 18 16 16 19 19 18 17 15 15 13 14 20 23 21 15 11 10 9 9 10 12 14 18 22
11 13 12 10 9 9 9 9 9 10 11 13 14 14 15 15 14 14 14 14 14 13 13 12 10 9 9 8 8 7 6 5 4 3 3 4 6 8 9 9 9 10 9 9 10 11 10 11 11 11 11 11 11 12 13 14 14 14 15 16 16 17 17 17 19 20 19 18 15 14 13 13 12 11 14 15 14 12 11 10 10 10 11 16 21
11 12 13 13 12 10 11 11 10 10 11 14 17 17 17 17 17 17 17 16 15 14 13 12 10 8 7 7 7 6 5 5 4 5 5 7 9 10 11 11 12 12 11 11 12 12 12 12 12 11 11 12 12 12 14 15 15 15 16 17 16 16 17 18 18 18 19 18 15 13 14 13 10 7 9 13 12 11 10 9 11 13 13 15 18
12 11 12 14 14 12 12 12 11 11 13 16 19 19 19 19 19 19 18 16 15 13 12 11 9 7 7 6 6 6 6 6 6 7 8 9 11 12 12 12 13 14 13 12 14 14 13 12 12 11 11 13 13 13 13 14 15 15 15 16 16 16 18 19 18 17 18 19 17 14 14 14 13 11 11 12 13 15 13 8 11 15 13 14 17
12 11 10 11 12 13 13 13 12 13 16 19 20 20 21 20 20 19 17 15 13 12 11 9 8 7 7 6 6 6 7 8 8 9 10 10 11 12 11 11 12 13 13 14 15 16 15 14 14 13 14 15 15 14 14 13 14 15 15 15 15 16 17 17 18 17 16 17 16 16 16 15 14 14 14 15 15 16 15 10 12 15 13 12 14
12 12 10 10 12 14 15 14 13 13 17 21 20 20 21 21 19 18 16 13 11 10 9 8 7 7 6 6 6 7 9 10 10 10 10 10 10 11 11 11 12 12 13 15 16 15 16 16 15 15 16 16 15 15 15 13 13 14 15 15 14 14 15 16 17 16 15 16 16 15 17 17 17 16 16 16 16 16 15 12 11 12 12 11 11
13 12 12 12 14 16 15 14 14 14 16 20 21 21 21 19 18 17 15 12 10 8 7 7 7 6 7 8 8 9 10 10 10 10 10 10 11 11 10 10 11 12 13 15 14 14 15 15 15 15 15 15 15 16 16 14 13 13 14 15 14 13 13 15 17 15 15 16 16 16 17 18 17 17 17 18 19 18 17 15 13 9 8 9 8
13 12 13 14 15 16 15 14 15 14 15 19 21 21 20 19 17 16 14 11 9 7 7 7 7 8 9 9 9 9 9 8 9 10 11 11 12 11 9 9 12 12 13 13 13 13 14 14 14 13 13 14 14 16 16 14 12 13 15 16 16 14 13 14 16 15 15 16 16 17 17 17 17 17 16 17 19 20 20 20 19 14 8 7 7
9 11 13 14 15 16 16 16 16 16 16 18 19 19 19 18 17 15 12 10 8 7 7 8 8 9 10 9 10 11 11 11 11 12 12 12 12 9 8 10 12 13 13 13 12 12 12 13 13 13 12 13 15 17 17 15 13 13 16 17 17 15 13 14 16 16 17 17 17 18 17 16 18 19 17 15 16 18 19 21 22 20 15 9 6
7 10 11 14 15 16 17 17 17 19 20 20 19 19 18 17 15 13 11 9 8 7 8 9 9 10 10 11 12 12 12 13 12 11 12 11 9 8 9 11 12 12 12 11 11 11 11 12 13 14 14 15 17 18 19 19 17 15 17 17 17 16 15 15 16 17 17 17 17 18 16 15 18 19 17 16 15 15 17 19 20 21 21 16 9
11 11 11 12 15 16 18 17 18 21 22 21 20 19 16 14 12 11 10 9 8 8 9 10 11 12 13 13 12 12 12 11 10 10 10 8 7 8 10 12 12 11 11 10 10 11 13 14 14 15 16 17 18 18 19 20 18 17 17 18 17 16 16 17 17 17 17 17 18 18 17 17 17 17 17 16 17 16 15 17 19 20 21 21 17
13 13 12 13 16 18 18 19 20 23 23 22 21 18 15 12 11 10 11 10 10 11 11 11 11 11 11 11 10 10 11 10 9 9 7 6 7 9 11 11 10 10 10 10 11 12 14 15 15 17 18 18 18 18 19 18 17 17 17 18 18 18 18 18 18 19 19 19 19 19 19 18 17 17 17 18 18 18 16 15 16 17 18 21 22
13 13 13 14 17 17 17 19 21 22 22 21 19 16 13 12 12 13 13 13 13 13 12 11 11 10 10 10 9 9 8 7 7 7 6 6 8 9 10 9 8 9 10 11 12 14 15 16 18 19 19 18 18 18 18 17 17 17 17 18 19 18 19 19 19 20 20 20 20 20 20 20 19 17 18 18 18 19 18 16 15 15 16 18 20
13 14 14 15 17 15 15 17 18 18 19 18 16 14 13 14 15 15 14 13 12 11 10 9 9 8 8 9 9 9 8 5 5 6 7 8 9 9 9 9 10 11 12 13 15 16 17 19 21 22 21 20 20 19 19 19 19 18 18 19 20 20 20 19 19 20 21 21 22 21 22 23 22 19 19 18 18 19 18 17 17 16 16 17 17
14 14 14 15 16 16 16 17 16 16 16 15 14 14 14 15 16 15 14 13 12 10 9 8 8 8 8 9 9 8 6 6 8 9 9 7 8 10 10 11 12 12 13 16 17 18 17 18 21 23 22 20 20 19 20 21 20 20 21 20 21 22 21 20 20 20 21 21 22 22 23 25 25 23 22 20 18 19 18 17 18 18 16 18 17
16 15 14 14 15 17 18 18 17 16 15 14 13 13 13 14 15 15 14 12 12 11 9 9 9 9 9 9 8 7 8 9 10 9 9 8 10 12 12 13 13 13 14 15 16 17 16 15 18 20 19 18 18 17 18 19 20 20 20 20 21 22 20 19 19 19 21 22 23 23 24 26 27 27 26 24 21 20 19 17 17 17 16 17 16
16 15 14 14 15 17 19 18 18 17 15 14 14 13 13 15 15 15 13 12 11 10 9 8 8 8 8 8 8 9 9 9 8 8 10 10 11 12 12 12 12 13 14 14 14 15 16 16 17 17 17 18 17 17 17 18 18 18 17 17 18 19 19 19 20 21 23 23 22 23 23 26 29 31 31 29 26 23 21 19 17 17 16 15 15
17 17 15 13 13 15 16 17 17 17 15 14 14 14 15 16 15 13 13 12 10 8 7 7 7 7 9 9 9 8 7 7 8 9 11 11 11 12 12 12 12 13 13 13 14 15 14 15 15 15 16 17 16 16 16 16 16 16 17 16 16 17 18 20 22 23 23 25 24 23 24 26 30 32 31 31 30 27 25 23 21 19 17 15 14
16 15 13 12 13 14 15 16 16 16 14 13 13 15 16 15 14 13 12 11 8 7 8 8 8 8 9 9 8 8 7 8 9 10 11 11 11 11 11 11 12 13 13 13 14 14 14 14 15 15 15 16 16 16 15 16 18 20 20 19 18 20 21 22 24 21 22 29 30 27 26 26 28 31 31 31 32 31 30 30 27 23 20 17 15
13 11 12 14 14 14 15 15 16 16 14 14 14 16 16 15 13 12 11 9 7 7 8 8 8 9 9 9 8 8 8 9 9 10 10 11 11 11 11 11 12 13 14 13 13 14 14 13 15 18 17 16 20 22 19 19 23 26 26 25 26 28 28 28 29 27 26 30 31 29 28 27 27 30 32 32 32 31 33 35 35 31 26 23 20
15 14 15 16 15 14 15 16 16 16 15 15 16 17 16 14 13 11 9 9 8 7 8 9 9 9 9 8 8 8 8 9 9 9 10 11 11 11 11 11 12 13 13 13 14 17 18 17 21 25 24 23 27 28 25 24 26 28 29 30 32 33 33 32 33 34 33 33 33 30 28 27 27 29 31 33 33 34 36 36 37 37 32 27 24
19 18 15 14 15 16 17 17 17 17 17 17 17 16 15 14 13 11 9 9 8 8 9 10 9 9 9 8 8 8 8 9 9 9 10 10 10 11 11 12 13 13 13 16 20 24 26 25 26 28 28 29 30 28 25 25 26 28 29 30 32 33 34 33 32 33 33 34 34 32 27 27 28 26 27 31 34 36 38 38 40 41 38 32 27
16 15 13 14 16 17 17 18 18 18 18 18 18 16 15 14 13 11 9 9 9 10 11 10 10 11 11 9 9 9 9 9 10 10 10 10 11 12 12 13 13 13 16 23 27 28 28 27 27 28 29 29 28 26 25 25 26 28 30 30 30 31 32 33 31 30 30 30 32 32 31 32 31 25 22 26 30 33 35 38 41 43 42 40 34
13 12 13 14 15 16 19 20 20 19 18 19 19 17 16 16 14 11 10 9 10 12 12 11 12 13 13 13 13 12 11 11 10 10 11 12 12 13 13 15 17 20 24 28 29 29 29 28 28 28 28 28 27 25 26 26 27 29 31 31 30 29 29 30 30 29 30 29 30 32 34 36 34 29 24 21 23 27 30 32 36 40 43 43 41
13 13 15 15 14 17 21 22 20 18 18 19 19 18 17 18 16 13 11 12 13 13 13 12 13 14 14 15 16 16 16 15 13 12 12 12 14 17 20 23 26 28 29 30 31 31 31 30 29 29 28 27 26 26 26 27 29 30 32 33 31 29 28 28 28 28 30 31 30 29 33 36 35 33 31 25 20 22 26 29 31 34 37 40 41
12 15 16 16 17 19 21 21 20 19 19 19 18 17 18 20 18 15 14 14 14 14 13 12 12 13 14 15 17 19 20 20 19 19 19 19 22 25 27 28 29 30 30 31 32 32 33 32 31 31 30 29 27 26 26 28 29 31 32 32 31 30 29 28 28 29 30 32 31 29 29 33 35 34 33 30 24 21 22 27 29 29 31 34 38
15 15 16 19 22 22 21 21 21 20 20 20 18 18 19 20 19 18 17 16 15 13 12 11 12 13 14 16 18 20 21 22 23 24 25 26 27 28 28 29 30 31 31 32 32 33 33 33 33 32 32 31 29 27 27 28 29 31 31 31 30 29 29 29 29 30 32 34 34 32 30 33 36 35 33 31 27 22 21 24 26 26 26 29 34
18 19 21 22 22 23 24 23 22 22 21 20 19 20 21 21 19 19 20 20 18 14 12 13 14 14 16 18 20 22 24 24 25 26 27 28 28 29 29 30 31 32 32 32 32 33 32 32 32 33 33 32 29 27 26 26 28 30 29 27 27 26 26 28 28 28 32 37 37 35 33 34 36 36 33 32 30 25 23 23 24 24 24 24 27
18 20 22 21 21 22 23 22 21 22 23 22 21 22 23 22 19 18 21 22 21 17 15 15 15 15 18 20 21 24 25 25 26 27 28 28 29 29 30 30 32 32 32 32 32 31 31 31 32 32 32 31 29 27 26 25 26 28 26 23 23 23 23 25 27 25 28 34 38 37 35 35 37 36 34 34 33 29 25 24 24 23 24 24 23
20 20 20 20 21 23 24 24 23 24 25 26 24 23 23 21 19 20 21 22 22 20 17 17 18 18 20 22 23 25 26 26 27 27 28 29 29 30 30 30 31 32 31 31 31 31 31 31 31 31 31 30 29 27 27 26 26 27 26 21 20 23 22 22 24 25 25 29 34 37 37 35 35 35 35 36 37 34 28 25 24 24 25 26 24
21 23 23 24 24 24 25 26 26 26 27 28 26 24 23 20 20 21 22 22 23 21 19 19 19 19 21 23 24 25 26 27 28 28 29 30 29 29 30 30 30 31 30 29 29 30 31 30 30 29 29 29 28 26 26 26 26 27 27 22 19 22 23 21 21 23 25 27 30 33 35 35 33 34 35 37 39 38 33 28 25 24 24 25 23
21 21 23 24 26 28 27 24 24 26 27 27 25 23 21 19 21 22 23 23 23 21 20 20 20 20 22 23 24 25 26 28 29 29 30 30 29 29 29 30 30 29 28 28 28 29 30 29 28 28 28 28 27 25 25 25 25 26 28 26 22 21 21 21 20 21 23 24 26 30 33 34 33 33 35 36 38 39 37 33 29 26 24 22 20
24 26 27 25 25 28 28 26 27 29 28 27 25 22 20 21 23 24 24 24 22 21 21 20 21 22 23 23 25 26 27 28 28 29 29 29 29 29 29 29 28 27 27 27 26 26 27 27 27 27 27 26 25 24 23 23 23 24 26 27 27 24 20 19 20 21 22 23 24 28 31 32 32 33 34 35 36 37 37 37 34 30 28 25 21
24 28 30 27 24 24 26 27 28 29 29 27 25 24 23 24 25 25 25 24 23 22 21 21 22 22 23 25 26 26 27 27 27 27 28 28 28 28 28 28 27 26 26 25 23 21 22 23 24 25 25 24 23 22 22 22 22 22 23 24 26 26 23 22 22 22 23 24 25 27 29 30 30 32 33 34 35 36 36 36 35 33 33 31 25
24 24 26 29 28 26 27 27 27 29 29 26 24 26 26 25 26 26 26 25 24 22 22 22 23 24 24 25 26 26 26 27 26 26 27 28 28 27 27 26 25 24 23 22 20 19 19 20 20 20 21 22 22 21 20 20 20 21 22 23 23 24 25 26 26 25 25 26 27 27 27 28 29 31 32 33 34 35 34 34 35 35 35 32 26
25 24 27 31 32 28 25 24 25 28 28 25 26 29 28 26 25 26 27 26 25 23 23 23 24 25 25 26 26 26 25 25 25 26 27 28 27 26 26 25 23 20 20 19 18 17 18 17 17 16 17 19 20 20 20 19 19 20 21 23 23 23 24 26 27 27 27 27 27 26 25 26 28 30 32 32 33 33 33 33 34 36 36 34 29
24 25 29 34 34 29 24 22 23 26 26 25 27 30 29 26 26 27 27 27 26 24 24 24 25 25 25 26 25 25 25 24 25 26 27 27 26 25 23 22 20 18 18 17 16 16 16 16 15 15 15 16 18 19 20 20 20 20 21 22 23 24 24 26 27 28 27 26 25 25 26 27 29 30 32 33 33 32 31 32 34 35 36 35 31
23 23 28 32 32 29 26 24 23 24 25 25 27 29 29 28 27 27 26 26 26 26 26 25 25 25 25 25 25 25 24 24 24 25 26 26 25 24 22 19 18 16 16 16 15 14 14 14 14 14 14 15 16 17 18 18 19 21 22 23 24 25 25 27 28 27 27 27 27 28 30 30 31 32 34 35 34 33 32 32 33 35 35 35 33
24 26 31 32 28 24 24 24 23 23 25 26 27 28 28 28 28 27 26 26 26 26 26 26 26 26 25 25 25 25 24 24 24 25 25 24 23 23 20 17 15 15 14 14 14 13 13 13 13 12 12 13 14 16 17 17 17 18 19 21 23 24 25 26 26 26 27 28 28 29 31 32 33 33 33 34 35 36 36 35 34 33 33 33 32
22 28 34 33 27 23 24 25 24 25 27 28 27 28 28 28 28 26 26 26 26 26 27 27 26 26 26 25 25 25 25 25 25 25 24 23 22 21 19 17 15 14 13 13 13 12 12 11 10 10 11 12 13 15 18 18 18 17 17 18 20 22 22 23 23 24 24 25 25 26 28 29 31 32 31 30 31 33 35 36 36 34 31 30 31
23 28 34 34 30 26 25 25 26 28 29 28 27 28 28 28 27 27 27 27 27 27 27 27 27 26 26 26 25 26 26 26 26 25 24 23 22 21 20 19 18 16 15 14 13 13 12 11 10 10 10 11 12 14 16 17 17 18 18 18 18 19 19 19 20 21 20 20 21 24 25 25 25 27 27 26 27 29 30 32 35 35 32 30 30
23 27 31 34 33 31 28 24 24 27 28 27 27 28 28 28 28 28 28 27 27 28 27 27 27 27 27 27 26 26 26 26 26 25 24 23 21 20 19 18 18 17 16 15 15 14 13 12 12 12 12 12 13 14 15 15 16 16 17 17 17 17 17 16 19 21 20 19 19 21 21 20 20 22 23 22 23 25 27 27 29 32 33 32 30
23 26 26 26 29 32 30 25 23 23 25 26 27 28 28 28 28 28 27 27 28 29 27 26 27 27 27 27 27 27 27 26 25 24 23 21 20 19 18 17 17 16 15 15 15 15 14 13 13 13 14 14 14 14 14 16 17 16 17 16 16 16 16 16 19 22 21 18 18 18 18 18 18 19 20 19 19 21 23 23 23 26 31 31 30
Wind_Direction
119 124 126 136 144 149 153 152 154 156 160 165 165 165 165 166 165 165 165 164 163 160 159 160 151 138 128 129 131 123 117 96 73 52 50 55 61 63 56 36 14 5 356 340 327 320 323 326 330 327 322 317 311 308 308 305 301 299 297 294 290 288 286 282 280 280 276 274 278 277 274 273 270 264 259 254 252 252 253 251 247 243 241 239 237
117 116 116 125 133 139 143 144 150 154 160 165 167 168 168 167 166 164 163 163 164 161 159 155 146 136 129 133 137 130 119 96 84 81 82 81 80 80 76 63 50 37 23 7 343 330 324 320 320 318 318 321 322 319 314 308 304 300 298 297 295 293 291 287 282 272 261 262 274 278 275 271 265 261 259 254 250 251 250 248 245 240 237 236 238
118 107 110 114 115 128 136 141 151 154 159 165 166 166 164 163 161 161 159 159 162 160 153 141 134 134 133 134 131 122 118 113 108 107 102 93 86 81 76 74 69 57 35 12 355 343 330 319 316 316 317 319 318 315 309 303 300 297 294 293 293 292 287 285 282 269 258 260 268 272 276 278 266 254 252 251 249 247 244 242 241 239 239 237 239
112 111 108 110 112 123 132 140 149 149 155 164 165 164 162 160 158 158 157 157 158 153 143 136 137 145 143 134 128 119 119 123 117 107 99 92 88 83 78 71 58 41 21 7 359 347 339 332 328 325 322 315 306 304 301 298 297 295 294 291 289 286 282 281 279 272 263 259 257 258 253 267 268 262 259 254 245 243 241 239 240 240 240 239 237
334 125 117 113 115 124 132 138 143 144 151 160 168 171 168 165 161 156 156 155 151 144 140 140 142 146 143 137 134 128 123 123 112 98 94 90 86 81 71 55 38 27 18 12 6 356 350 345 340 333 326 318 310 307 305 303 300 297 295 293 288 284 285 286 283 277 267 258 252 249 239 263 268 276 284 262 234 238 242 240 240 240 240 238 236
359 68 110 117 117 123 127 131 136 139 144 152 164 171 168 165 160 156 154 148 142 140 141 142 141 143 149 148 144 139 129 116 101 97 94 88 80 72 55 40 27 19 17 14 8 1 357 354 353 345 338 333 328 321 314 310 305 301 297 295 292 288 288 288 284 280 274 264 255 249 244 251 261 270 283 269 236 237 239 239 241 240 240 238 236
104 63 63 113 119 121 119 122 131 134 137 144 151 154 154 154 151 149 146 141 138 141 143 143 141 139 147 146 134 127 120 109 102 99 93 81 66 53 36 26 21 17 15 12 8 6 3 1 359 354 352 346 340 331 319 313 307 302 299 295 293 291 289 288 286 285 282 275 268 260 250 246 253 254 248 267 268 247 229 230 239 240 239 239 237
133 132 157 134 120 118 117 118 127 130 133 139 142 142 144 144 142 139 137 139 141 145 148 148 146 142 142 135 120 111 109 107 108 97 84 64 45 40 31 23 22 19 16 14 10 9 7 4 1 357 356 350 344 338 326 323 320 313 311 305 296 293 293 291 289 289 287 283 284 279 263 256 261 254 242 250 269 269 253 238 238 238 238 239 238
152 144 151 150 128 124 123 123 129 132 132 135 139 141 141 140 140 140 140 144 148 152 152 148 148 142 134 124 111 103 98 97 97 79 62 46 32 30 27 22 20 17 18 18 14 13 7 3 1 357 356 351 344 340 335 334 333 327 322 315 306 300 296 292 290 292 292 287 290 290 277 273 270 253 242 245 248 255 266 259 244 231 231 238 238
165 146 141 144 138 132 126 120 123 128 130 134 137 138 138 137 140 143 143 145 148 150 148 142 139 133 123 110 96 91 86 80 72 56 41 26 21 23 23 19 16 14 15 15 12 11 6 2 1 357 355 351 346 343 343 344 341 334 325 319 317 312 304 299 298 300 297 288 287 290 286 286 280 252 241 247 245 247 258 265 259 238 229 235 234
169 147 134 135 137 133 125 119 121 126 128 130 134 137 138 139 142 141 139 140 141 142 139 134 132 125 110 91 78 77 76 71 63 53 39 27 25 24 20 15 12 11 11 12 9 6 3 2 1 359 357 353 350 349 346 344 341 336 330 326 325 322 315 311 306 306 307 301 291 284 282 285 285 270 253 246 240 243 250 259 258 249 244 242 237
165 149 132 131 136 136 131 128 130 132 131 131 134 137 138 139 138 134 131 134 135 135 133 128 123 108 90 79 75 74 73 69 62 48 37 33 31 24 18 15 12 9 10 11 6 3 3 3 2 0 357 354 353 351 345 342 340 337 336 335 333 328 323 321 316 312 315 314 308 296 287 282 279 278 277 264 248 246 247 250 258 256 251 248 245
161 150 135 135 141 142 139 137 137 137 136 136 138 139 137 136 135 131 128 130 129 128 125 118 107 92 82 80 76 71 67 60 54 44 37 36 31 22 18 15 11 9 10 8 2 5 10 10 8 4 1 360 357 354 348 343 345 345 344 341 338 335 333 332 327 321 319 319 315 306 295 290 286 283 283 280 269 260 255 254 261 262 259 255 247
161 151 140 140 146 145 143 142 141 141 140 141 142 140 137 137 136 131 126 125 123 118 112 101 93 86 81 78 70 64 60 54 49 42 39 36 27 23 20 14 9 6 7 6 3 9 17 14 11 10 8 5 2 359 357 352 351 352 351 348 343 339 341 345 342 336 333 328 322 313 306 302 297 290 283 278 272 265 261 262 267 265 259 257 248
155 150 145 144 147 146 145 143 143 144 141 141 143 142 139 136 134 130 125 123 116 105 98 90 85 80 75 71 66 62 58 54 49 47 47 42 33 26 19 17 17 11 8 10 9 13 15 13 13 11 8 8 8 5 4 5 4 2 0 357 352 344 342 350 352 348 346 341 336 331 327 322 313 303 290 280 275 270 265 265 267 266 257 253 246
148 149 147 145 145 143 142 142 141 141 140 140 142 142 140 136 132 128 123 117 106 97 95 90 83 75 68 64 62 64 65 61 59 59 51 38 27 17 13 25 28 18 14 15 16 15 14 13 13 11 11 14 13 10 11 14 13 10 11 8 2 356 349 353 357 355 352 349 346 344 343 342 338 329 311 294 288 281 272 264 259 258 260 258 252
145 146 143 141 141 140 140 141 139 138 139 140 140 140 138 134 130 123 115 107 101 98 94 83 76 71 66 64 68 74 76 72 66 59 41 21 15 16 23 31 26 19 19 20 19 18 17 16 16 17 21 23 20 18 21 25 23 19 20 17 11 7 3 0 0 359 359 357 353 352 351 347 347 346 335 320 308 296 285 274 265 260 259 258 261
135 133 134 135 137 138 139 139 139 141 142 139 138 137 134 130 126 118 111 108 104 96 85 77 74 75 75 76 77 76 69 61 53 42 26 14 17 35 40 33 26 23 22 20 18 21 22 21 22 26 29 32 30 28 30 33 32 25 22 19 14 12 11 7 4 3 2 2 359 357 356 350 348 348 343 334 325 311 298 289 281 272 263 255 256
143 141 141 139 139 140 138 138 139 141 139 136 135 134 130 127 122 115 112 111 102 91 84 82 84 84 83 76 69 62 55 51 43 30 22 21 32 43 41 33 28 26 22 18 18 23 28 26 25 28 34 38 37 35 36 35 30 23 19 17 16 15 14 11 9 7 5 4 3 0 357 354 351 349 344 341 338 330 318 307 298 285 269 255 249
149 147 144 140 140 140 138 139 141 140 138 136 135 133 128 124 119 117 115 106 95 88 85 85 84 81 76 68 57 53 50 47 44 38 33 37 44 45 40 33 28 27 24 21 23 28 31 30 27 32 38 41 40 39 36 29 21 19 19 18 17 15 15 14 12 12 11 9 8 6 3 359 355 352 349 347 345 341 333 327 319 304 284 265 250
141 139 137 135 135 135 137 140 140 137 136 135 134 131 128 126 125 122 112 98 87 81 78 76 75 70 68 67 61 51 40 33 39 46 49 56 54 47 40 35 34 35 32 31 34 36 36 35 36 38 40 39 37 36 31 23 19 19 19 18 17 15 16 16 14 14 14 11 9 8 7 5 2 358 356 354 352 349 343 337 336 328 310 290 267
136 137 136 135 135 134 135 137 136 132 132 133 132 130 130 129 126 118 103 92 84 75 70 68 66 65 67 66 56 44 36 44 70 72 65 60 57 51 46 49 51 47 47 47 48 48 48 47 46 45 44 42 39 35 31 29 27 25 23 22 21 21 21 19 16 14 12 11 12 11 9 8 6 4 2 359 357 357 354 347 344 341 332 322 299
141 143 140 136 136 135 136 137 134 130 130 131 130 130 130 125 117 107 97 91 86 78 74 73 72 74 72 60 50 50 63 83 90 85 76 66 60 59 56 58 60 58 59 59 58 58 56 52 50 49 47 45 42 38 38 39 38 37 37 34 33 32 27 23 20 15 12 12 13 14 12 9 8 7 6 3 1 1 358 354 351 348 342 340 329
146 149 142 133 133 137 141 141 137 133 131 131 128 126 122 114 105 98 92 88 86 82 80 79 78 77 67 56 61 79 86 86 84 82 79 74 70 69 64 63 66 67 66 64 61 59 54 50 50 49 46 44 41 39 40 43 44 44 44 40 37 35 31 28 26 22 20 20 19 18 16 14 13 12 10 7 4 4 4 358 354 352 348 347 343
147 147 139 133 137 143 147 146 142 139 137 134 130 123 114 106 101 96 90 87 84 77 74 75 72 67 65 71 86 87 80 84 88 83 80 80 78 76 72 70 70 68 66 62 58 57 53 50 49 46 44 45 43 40 38 40 43 42 42 41 38 37 36 36 37 34 31 28 25 23 22 21 21 20 17 14 9 6 8 5 359 356 353 347 347
147 143 138 135 139 145 148 145 141 139 136 132 126 117 109 103 98 95 92 87 77 68 71 77 76 77 85 93 93 83 83 96 94 87 86 87 85 82 78 75 72 67 65 61 59 57 53 50 48 45 45 44 42 43 41 39 40 41 43 44 40 39 39 39 40 38 35 35 34 31 31 30 28 27 25 22 20 17 13 11 7 4 0 351 347
142 137 134 135 142 149 148 141 136 136 134 128 122 116 111 104 97 95 91 81 71 74 84 87 88 91 93 96 93 88 93 95 89 90 94 91 88 85 79 77 74 70 67 62 58 57 55 53 50 47 47 44 45 48 45 42 48 51 50 47 43 44 42 39 39 37 37 41 42 37 35 34 32 32 31 28 28 26 23 22 19 14 13 11 5
133 136 141 145 151 151 144 136 131 133 131 124 119 114 108 103 98 94 87 79 82 90 91 93 98 95 92 97 101 96 92 90 90 94 96 93 91 87 82 80 77 73 68 61 56 56 56 55 55 55 54 51 53 56 56 57 60 61 58 54 52 52 50 45 44 43 41 42 42 40 38 39 39 38 37 36 35 34 33 31 29 27 25 24 25
145 153 153 153 154 147 138 135 131 133 131 123 116 110 105 104 102 97 91 96 102 97 95 101 102 98 98 103 105 99 91 90 93 93 92 92 89 84 80 76 73 70 65 59 60 66 67 64 64 64 63 60 60 61 63 67 67 65 63 60 59 57 55 52 50 49 47 45 45 43 39 41 46 46 43 44 45 44 42 39 37 36 33 29 29
156 158 155 152 150 142 138 139 137 137 134 124 117 113 112 111 107 102 102 110 114 105 101 104 104 107 111 106 99 97 95 94 93 91 90 88 84 81 78 74 71 68 65 67 72 74 74 71 69 68 66 65 64 63 65 68 70 69 66 62 59 57 55 52 49 47 45 44 45 44 40 39 44 46 44 46 49 50 49 48 47 45 43 38 33
156 154 150 147 144 142 143 144 143 143 139 130 126 125 123 119 113 111 112 115 116 110 106 107 112 121 123 114 103 99 97 96 94 91 90 87 85 82 77 74 73 71 73 77 78 77 75 74 72 70 68 66 65 64 65 67 69 69 68 63 59 56 54 51 47 43 41 40 40 41 41 41 42 42 41 42 47 50 51 51 52 52 52 49 45
154 150 146 144 144 147 149 150 149 147 140 134 133 133 128 121 116 118 121 121 117 115 116 119 124 130 131 125 120 111 103 98 94 92 92 89 86 82 79 80 81 82 82 81 79 78 76 75 74 73 70 68 66 66 67 67 67 68 67 65 60 56 53 50 48 44 42 41 40 39 42 43 43 46 46 41 40 45 50 51 51 53 55 56 55
153 151 147 145 146 151 153 153 151 145 138 138 139 136 132 129 127 129 132 125 117 118 120 121 125 132 133 128 123 117 111 107 102 99 97 93 92 91 90 90 89 87 85 83 81 79 77 76 75 74 72 70 68 68 69 69 69 69 68 66 63 59 55 51 48 46 44 43 42 39 41 42 42 45 49 44 36 39 48 52 52 52 53 55 57
154 151 150 150 152 155 155 152 149 141 136 138 138 132 132 135 137 140 137 125 117 119 121 120 123 130 130 126 122 118 115 112 110 108 105 102 100 98 96 95 92 90 88 84 82 80 78 76 75 73 72 70 69 69 71 71 71 70 68 67 64 60 57 54 51 48 45 44 43 40 39 40 41 43 47 46 40 35 43 49 50 49 49 50 53
158 153 155 157 157 157 154 148 145 141 138 138 135 131 133 136 140 142 135 125 121 121 122 123 123 126 128 125 121 119 116 114 112 109 107 105 102 100 98 96 94 92 89 86 83 81 79 78 76 74 72 70 68 68 70 72 72 70 68 66 64 61 58 56 53 50 49 48 47 45 42 41 42 43 45 48 46 39 40 45 46 46 46 47 49
161 159 161 160 158 156 152 146 144 141 139 139 138 138 138 138 141 142 134 130 131 128 125 127 127 128 129 127 123 121 118 115 112 110 108 106 104 102 99 97 95 93 90 88 85 82 80 78 76 74 71 68 65 64 66 68 70 70 67 64 63 61 58 57 54 51 51 51 51 50 47 45 44 43 43 47 48 44 42 44 44 44 44 43 44
154 153 155 153 149 149 146 142 141 138 138 139 140 142 141 138 138 140 136 135 138 136 134 134 132 131 131 129 126 124 120 116 114 112 109 107 105 104 101 98 96 93 89 87 85 83 81 79 76 73 70 67 63 60 61 63 67 70 67 62 61 61 58 57 56 53 52 52 52 52 51 49 47 45 43 45 48 46 43 42 42 42 42 41 39
142 139 140 141 143 144 143 141 140 140 143 146 144 143 142 138 138 142 140 137 138 139 140 139 137 136 135 132 128 126 123 119 117 114 112 110 108 106 103 100 97 94 91 88 86 84 82 79 76 73 71 68 64 60 59 60 63 68 67 61 59 61 59 56 55 55 53 52 52 52 53 52 50 48 46 47 50 49 44 41 40 40 41 40 35
143 142 143 143 143 143 142 141 141 143 148 150 148 146 142 137 138 143 141 137 138 140 143 144 141 140 138 134 131 128 125 122 119 117 114 112 110 107 104 102 99 95 93 90 88 86 83 80 77 74 71 70 66 61 58 58 59 64 66 64 60 60 59 57 55 55 54 53 52 51 53 54 53 52 50 50 52 52 49 44 41 40 41 38 33
142 141 140 141 142 142 141 139 140 144 146 147 146 144 138 135 141 142 138 137 139 142 145 146 143 142 139 136 133 130 127 124 121 119 116 114 111 109 107 104 100 97 94 91 89 86 84 80 77 73 71 69 67 62 58 58 58 60 64 65 63 60 58 57 56 55 52 51 50 50 52 54 54 54 53 52 52 53 52 49 46 42 38 34 29
145 144 141 139 141 143 141 141 144 146 148 148 146 139 134 139 143 140 136 139 142 144 145 144 143 142 140 136 134 131 128 125 123 121 118 116 114 112 109 105 102 99 96 93 89 86 83 80 76 74 71 68 67 65 61 58 58 58 60 64 65 64 61 59 58 57 54 52 50 50 52 54 54 54 54 53 52 52 52 52 49 46 44 41 36
137 142 142 138 137 139 139 140 145 148 150 152 148 140 139 144 143 139 140 144 145 144 144 143 142 140 138 136 133 131 129 127 125 123 120 117 116 114 110 107 104 101 97 93 89 86 83 79 76 74 72 69 67 65 62 60 58 57 58 61 65 67 67 64 62 59 56 54 54 54 54 54 55 55 55 54 53 53 53 53 51 50 49 47 42
134 140 143 140 137 139 139 140 145 149 152 155 150 143 144 146 143 142 146 146 145 145 144 143 141 139 137 135 133 132 131 129 128 125 122 119 117 114 111 109 105 100 96 92 88 86 84 81 77 73 70 69 66 63 62 61 61 60 61 63 66 68 69 68 66 63 60 60 59 59 57 56 57 57 56 54 54 54 53 52 51 50 49 47 42
141 142 146 142 137 135 135 138 146 151 153 158 154 148 147 147 145 147 149 147 147 147 145 144 142 139 136 135 134 133 133 131 129 127 124 122 119 115 112 110 104 99 96 93 89 86 84 82 80 74 68 66 64 62 61 64 65 64 65 67 68 68 69 71 70 67 65 64 63 62 60 60 60 59 57 55 54 53 52 51 50 49 48 47 43
142 143 146 144 140 136 134 136 146 151 154 158 158 152 149 148 148 151 151 149 149 149 146 144 142 139 138 136 135 135 134 132 131 129 126 124 120 116 113 109 103 99 98 95 90 88 86 84 81 77 70 65 62 61 61 64 67 66 67 69 70 71 72 74 75 73 70 70 69 67 65 64 62 60 57 55 53 52 52 51 49 49 49 47 43
140 142 143 141 138 137 136 136 143 151 154 155 158 156 153 152 152 154 153 152 152 150 147 144 142 141 140 138 137 136 134 133 133 131 128 125 121 117 113 109 105 102 99 97 94 90 88 86 82 80 74 67 62 59 58 60 62 63 67 72 75 76 78 79 78 77 76 74 72 70 67 64 62 60 58 55 53 52 52 51 49 49 49 49 46
143 145 145 141 137 137 138 137 141 150 154 153 155 158 156 154 154 155 155 156 155 151 147 145 144 143 142 141 139 137 135 134 133 130 128 124 121 117 114 110 109 105 100 98 95 91 89 88 84 81 77 70 62 57 54 55 57 59 64 71 76 79 80 79 77 77 76 74 70 68 66 64 62 59 56 53 52 51 50 49 48 49 51 51 48
143 146 146 144 141 139 140 140 144 152 155 154 157 160 159 156 156 158 159 158 156 152 149 147 146 145 144 143 141 138 136 134 132 130 128 125 122 119 115 112 110 106 102 99 95 90 88 88 85 82 77 71 64 58 56 57 61 64 66 70 74 76 77 77 77 76 73 70 66 63 61 58 56 54 51 48 47 46 46 46 47 48 50 50 49
143 147 150 149 146 144 142 142 149 156 156 155 159 162 161 159 160 161 162 161 157 153 150 148 148 147 145 144 142 139 138 135 133 132 129 127 125 122 118 114 108 103 101 100 99 96 91 87 84 81 78 77 73 67 63 63 67 70 73 74 76 77 77 78 78 76 71 63 58 55 52 49 47 47 45 44 42 42 42 44 45 46 47 47 46
144 148 151 151 149 148 145 143 149 156 156 156 160 162 162 163 164 165 166 163 157 152 150 149 149 147 146 144 142 140 139 137 134 133 130 128 128 125 119 114 108 103 101 100 100 100 97 93 90 87 85 88 85 78 73 73 74 75 76 77 78 78 77 76 74 72 67 60 54 52 48 45 44 43 42 41 40 40 40 40 41 43 45 45 44
145 145 146 148 148 149 148 146 148 153 155 157 159 160 163 166 167 168 169 166 159 153 150 150 150 149 148 146 143 141 141 139 136 135 132 130 129 126 119 115 110 105 102 102 100 99 97 96 96 95 92 90 87 83 81 80 81 80 79 79 77 75 73 72 70 67 63 57 54 51 48 45 43 42 41 39 38 38 38 37 37 40 43 44 43